Theta_e
347 352 361 360 362 364 363 363 365 364 364 364 364 362 362 364 362 361 363 365 363 363 363 361 360 360 359 358 358 359 357 356 360 358 359 361 362 361 363 364 361 356 358
350 356 361 361 363 363 363 363 364 364 363 364 363 362 362 363 362 362 361 361 363 362 361 361 360 359 358 358 358 358 359 355 355 357 358 357 358 356 359 362 362 358 358
352 356 357 363 364 364 363 363 362 363 362 363 364 362 361 361 361 360 359 360 360 360 361 360 360 357 357 357 357 357 358 355 357 358 353 349 351 354 354 358 362 362 360
353 355 357 365 366 364 362 363 364 363 363 363 363 363 362 360 360 360 359 358 358 358 358 359 359 357 355 356 355 357 356 358 359 351 340 338 346 354 350 355 359 363 361
353 355 357 363 364 364 362 363 364 363 362 361 361 360 358 358 356 357 358 359 358 358 358 358 358 356 356 355 354 356 354 356 357 353 343 336 345 349 352 356 349 359 361
353 356 361 363 364 364 363 363 363 362 362 362 360 358 358 357 351 355 354 355 358 357 358 357 357 356 355 356 356 356 354 354 354 343 339 339 344 354 353 357 354 356 360
351 354 358 364 364 363 362 363 363 362 362 361 359 359 355 355 352 352 355 356 356 357 357 358 356 357 358 356 355 355 354 353 351 345 339 338 347 351 356 356 355 359 359
351 355 357 363 363 363 363 363 362 362 361 360 359 355 355 355 354 354 357 356 357 357 357 358 357 358 357 357 355 354 352 355 348 346 343 343 346 353 358 358 358 360 358
353 354 355 357 361 364 363 362 362 362 361 360 357 354 354 348 349 356 357 357 357 357 357 356 357 357 355 355 354 355 353 353 341 346 344 346 349 356 357 356 357 357 355
352 353 350 353 355 355 355 362 362 360 360 359 357 355 354 353 353 356 356 357 356 356 354 355 356 356 355 354 353 354 354 352 344 341 343 346 353 357 359 356 356 355 356
349 351 352 352 353 353 354 358 360 360 359 359 357 357 353 348 351 350 355 358 356 356 355 355 355 356 355 355 352 353 356 348 342 343 338 344 354 357 356 357 357 356 358
344 347 350 349 349 351 355 353 353 353 352 351 350 349 347 345 344 351 353 357 356 356 357 356 355 355 355 355 353 354 353 347 344 343 341 342 352 357 355 358 357 356 356
344 347 349 349 347 349 351 350 349 348 348 347 349 349 349 348 350 350 351 351 352 354 351 352 351 353 353 353 353 352 351 348 346 347 341 346 355 358 353 355 354 354 353
342 345 347 349 348 347 349 348 348 346 346 345 345 347 348 347 348 347 348 348 347 347 349 348 350 351 352 352 352 352 351 349 348 348 345 353 357 356 356 357 356 355 353
340 343 347 347 346 348 348 348 348 346 346 346 345 345 348 346 346 346 344 349 346 348 347 347 348 348 350 351 350 348 349 349 349 349 348 356 356 356 355 354 354 354 355
339 341 344 345 346 348 348 349 347 346 346 346 346 345 346 348 347 345 346 347 347 347 348 350 348 341 346 348 347 346 347 344 348 348 349 355 357 356 356 355 352 354 354
339 341 343 344 345 347 346 348 347 346 347 345 345 345 345 348 345 345 345 345 347 347 347 349 348 341 339 340 342 348 347 348 347 348 349 352 357 357 356 356 356 354 353
339 340 343 347 345 345 345 346 346 348 346 346 346 345 345 347 347 342 347 345 347 348 350 347 343 338 339 342 346 346 348 347 347 348 350 351 353 356 357 357 357 355 354
340 341 342 344 343 343 344 345 345 346 346 345 345 346 343 345 350 345 346 345 348 349 347 347 342 344 344 345 344 344 348 347 347 349 349 351 353 355 355 354 359 359 357
340 342 343 344 344 343 342 343 343 344 344 343 342 346 343 348 349 346 344 342 346 348 349 347 346 345 346 345 346 344 344 347 347 348 348 350 351 354 354 353 355 358 359
341 341 342 341 341 340 341 340 339 339 342 342 343 345 346 347 347 345 345 341 346 346 346 348 347 343 341 343 342 342 342 345 345 346 347 346 347 350 352 352 351 352 354
340 340 340 341 340 340 340 339 341 341 342 344 343 346 346 345 346 345 342 340 345 347 347 347 344 341 337 337 336 336 336 341 344 345 346 346 345 346 346 349 350 351 352
338 339 340 339 339 339 339 340 340 342 341 340 341 343 346 344 346 347 342 341 344 344 346 344 346 343 333 335 335 335 331 332 336 341 341 343 346 345 346 347 347 349 350
339 340 340 339 338 338 339 339 339 337 336 339 341 343 345 346 345 346 344 342 342 341 343 347 348 340 337 333 335 335 335 337 336 336 340 341 342 343 345 346 348 347 349
340 340 339 338 337 337 338 340 338 337 338 338 340 343 344 344 346 348 346 341 344 343 347 347 350 341 339 337 334 334 333 334 334 334 334 336 339 343 347 347 349 351 350
340 340 340 337 335 336 336 338 338 338 336 335 337 339 342 343 346 345 343 342 344 345 348 351 352 343 344 343 338 337 337 337 336 337 335 335 334 339 343 346 346 348 350
Wind_Speed
4 6 10 8 8 11 13 13 14 14 15 14 15 16 16 15 15 14 13 12 13 13 12 11 10 9 7 7 8 7 7 5 5 7 7 7 8 8 9 11 14 10 12
11 7 12 9 9 10 12 12 12 13 14 14 15 15 14 14 14 13 12 11 12 11 11 10 9 7 7 6 6 6 7 5 3 4 6 5 7 4 5 10 12 10 12
11 7 9 10 11 11 10 10 12 12 12 13 13 14 13 12 13 13 11 10 10 9 9 10 8 5 4 5 5 6 4 5 5 8 8 5 7 8 11 4 12 14 12
11 7 5 8 10 11 10 10 11 12 12 12 12 13 13 12 10 10 9 9 8 8 8 8 7 5 1 3 3 6 4 5 7 8 5 5 4 9 6 13 8 12 13
8 6 6 10 11 11 9 10 11 11 11 11 11 11 10 10 8 4 8 9 8 8 7 6 5 4 4 3 2 5 3 6 6 6 4 4 4 10 11 9 3 8 12
7 6 10 13 12 11 9 10 8 10 10 10 10 10 9 9 12 7 7 6 6 7 7 6 5 5 4 4 2 2 3 3 4 4 3 2 4 10 18 16 9 8 11
7 6 8 12 12 11 9 9 10 9 9 9 8 9 7 9 3 6 6 6 6 6 6 6 5 5 5 4 2 1 1 2 4 4 3 4 3 4 11 11 11 11 10
9 6 6 12 12 11 10 10 8 9 8 8 8 11 10 8 7 7 7 6 6 5 5 5 5 5 4 3 2 0 2 2 4 4 3 3 4 5 9 9 12 13 10
6 5 5 5 9 12 11 9 9 8 7 7 9 10 14 8 5 4 6 6 6 4 4 5 5 3 3 1 3 2 2 6 4 3 3 1 2 2 9 7 8 9 7
5 5 5 5 5 5 4 9 8 6 6 7 9 11 13 13 8 5 3 5 5 6 5 5 5 3 2 1 3 3 3 10 4 4 1 1 1 4 8 8 8 7 7
4 5 5 5 5 5 4 3 8 8 7 7 8 11 8 3 3 3 3 4 4 5 5 5 4 4 3 2 1 1 7 3 4 2 1 1 1 4 6 7 6 5 7
6 5 5 5 5 4 3 2 4 3 4 4 4 4 4 4 3 2 1 6 5 6 5 4 3 4 2 0 1 2 2 4 3 2 2 3 3 4 5 7 5 2 3
10 6 7 6 5 6 4 3 2 2 3 3 5 3 3 2 1 1 1 1 2 2 2 2 2 1 1 1 1 1 3 3 2 1 3 6 5 6 5 7 5 4 2
8 9 7 7 7 6 4 3 3 3 3 3 3 4 3 1 2 1 1 2 2 1 0 1 1 1 3 3 2 2 3 3 2 2 3 6 7 5 5 6 6 5 4
7 9 7 7 7 6 5 4 4 3 3 4 4 4 3 3 2 2 2 2 2 1 3 3 2 2 2 3 2 1 3 3 4 2 2 7 7 6 5 6 5 5 5
6 7 6 7 6 8 7 7 5 4 4 3 3 4 5 3 2 2 2 2 3 2 3 1 1 2 1 2 2 2 3 4 3 4 3 4 8 7 6 6 5 5 4
6 7 8 7 6 7 7 7 5 6 4 4 4 5 4 3 3 3 3 3 3 3 3 2 3 2 1 0 2 3 4 5 5 5 4 3 4 8 6 7 6 4 4
7 9 7 7 7 7 7 4 4 5 5 4 4 3 5 4 4 4 3 2 3 3 3 4 3 2 1 1 1 1 2 4 5 5 5 4 3 3 6 7 5 6 6
9 8 7 7 7 7 5 4 4 5 5 4 3 3 5 5 4 4 3 2 3 3 3 4 2 2 1 1 0 2 1 0 3 4 5 4 3 3 3 4 6 6 8
8 8 8 5 6 6 4 3 3 3 2 3 4 3 5 3 4 3 3 3 3 2 3 3 3 1 2 1 1 1 2 2 0 1 3 3 3 5 4 4 4 4 8
9 9 9 7 5 6 3 3 3 3 2 3 3 4 5 4 4 4 3 3 3 3 3 4 3 3 2 0 2 1 2 3 0 2 2 3 5 5 6 6 5 4 4
12 10 8 7 7 5 4 3 3 3 2 2 2 3 4 4 4 4 4 2 1 1 3 4 4 3 2 0 3 1 2 2 1 1 3 4 5 4 6 7 7 7 6
12 12 10 8 8 6 6 4 2 3 3 2 2 2 3 4 5 3 3 2 2 0 2 2 3 4 3 1 2 2 2 3 0 0 2 2 4 4 5 6 7 7 7
13 11 10 9 8 6 7 6 5 4 3 3 3 2 3 5 5 4 4 4 1 1 1 2 3 2 3 3 2 2 1 1 2 1 1 3 3 5 7 5 6 7 8
12 11 10 9 7 6 8 7 6 4 3 2 2 3 3 3 4 5 4 4 2 2 1 2 4 3 1 3 2 2 1 0 1 1 2 2 2 4 4 4 5 5 7
11 12 10 10 9 7 8 6 8 8 5 4 3 3 3 2 3 4 4 3 2 2 2 0 1 4 2 2 2 2 3 2 2 2 1 1 2 3 3 3 5 5 6
Wind_Direction
168 159 153 136 117 115 111 107 109 112 113 110 121 135 138 139 139 145 141 134 133 133 130 124 118 119 109 85 77 78 81 92 103 107 114 118 118 120 128 130 123 127 130
136 150 150 141 132 129 122 116 114 113 112 118 120 129 131 139 141 146 146 142 142 140 142 139 135 129 108 87 79 78 92 111 131 125 123 101 103 62 136 148 138 138 138
133 144 151 152 146 140 127 129 118 118 123 125 129 126 140 141 139 143 144 147 147 148 161 159 156 153 111 92 77 79 96 141 125 80 73 47 66 57 336 178 153 142 142
134 136 146 154 144 134 129 127 126 128 127 127 122 128 136 143 142 150 158 170 159 167 176 180 182 179 149 98 110 104 120 139 132 113 84 74 103 116 192 257 167 147 145
132 135 158 147 142 142 141 132 134 132 134 127 127 121 121 125 105 163 187 189 179 180 187 179 178 158 168 144 146 109 145 136 149 124 120 119 157 169 220 227 203 168 153
130 141 158 151 148 146 149 139 131 134 145 137 136 130 131 146 163 186 197 192 186 194 185 190 167 170 155 144 169 133 169 168 130 112 106 168 169 181 193 221 204 191 155
136 148 154 155 153 150 158 155 155 155 144 141 139 125 101 112 86 197 191 195 180 193 182 178 156 141 128 149 184 141 243 234 154 140 110 170 184 236 188 179 177 168 153
149 148 154 161 160 160 161 159 153 149 149 143 138 126 112 112 147 179 165 165 184 185 187 165 158 155 161 184 232 276 307 50 109 127 133 161 201 220 167 175 174 168 156
142 135 140 152 170 164 163 165 164 159 150 147 135 132 118 140 224 174 151 161 188 197 198 194 177 159 177 208 127 104 42 103 114 111 120 182 236 107 133 160 166 163 160
124 138 149 141 135 147 164 181 160 170 151 157 137 143 153 168 192 168 158 198 206 202 208 217 197 185 239 253 104 96 63 108 111 98 102 206 214 191 144 145 144 160 169
165 167 157 160 159 161 163 190 163 163 150 134 139 150 130 114 106 102 182 231 203 221 217 230 227 226 226 289 344 43 100 117 147 120 159 165 188 198 154 141 150 195 180
184 186 178 162 154 159 158 144 158 149 99 107 132 130 130 146 157 168 200 226 199 224 217 220 229 230 230 99 319 356 113 135 132 162 245 254 173 198 166 133 148 151 147
184 186 182 172 166 163 155 148 158 122 113 130 140 143 148 144 70 64 21 41 86 80 97 88 39 36 93 156 229 138 138 165 157 182 226 217 193 213 167 160 168 180 197
176 190 185 167 161 177 149 169 160 145 137 163 152 157 158 167 140 127 146 140 114 25 290 184 173 238 213 178 211 158 173 165 175 197 209 199 190 208 167 161 175 177 202
188 181 184 169 166 177 175 169 160 164 167 169 164 179 179 186 145 205 144 157 144 116 238 215 132 215 225 165 207 239 199 174 175 173 185 195 185 199 201 182 188 195 211
173 185 170 184 171 176 179 183 175 154 169 161 179 190 186 172 179 202 172 143 160 190 237 221 185 123 115 135 204 234 230 206 173 171 184 187 187 198 220 204 206 206 219
184 170 179 184 168 180 185 187 170 156 165 169 193 207 159 163 192 168 187 147 193 201 231 194 139 84 79 157 231 244 214 219 189 170 168 174 196 206 215 224 213 212 228
163 176 170 183 177 172 174 169 164 153 164 187 199 204 162 182 197 182 197 207 202 176 170 153 117 101 105 157 253 254 217 162 171 162 150 172 191 205 222 225 225 227 233
171 159 169 170 177 166 162 158 158 156 176 180 200 191 177 208 195 199 211 215 187 161 147 137 132 133 133 135 252 304 28 130 151 144 151 173 205 213 215 249 253 241 246
159 159 157 164 163 144 136 137 125 152 193 167 195 196 185 207 193 202 215 199 177 138 122 128 131 127 103 134 101 53 37 28 74 156 170 162 182 225 231 232 243 246 243
152 154 161 160 163 142 144 159 145 169 165 192 195 194 192 195 198 209 226 209 169 134 140 148 118 113 78 176 117 336 14 15 21 216 199 206 202 213 224 231 233 240 246
162 163 159 170 163 161 153 139 148 149 167 174 171 198 193 192 203 217 275 299 123 143 127 159 162 142 120 351 119 57 44 337 345 244 229 229 234 212 226 233 233 232 238
165 164 170 168 166 164 156 131 104 98 84 93 173 189 202 180 198 209 222 218 201 36 204 199 157 136 141 120 168 128 125 223 311 290 269 260 253 243 224 221 229 228 227
175 161 162 158 165 171 166 167 158 159 147 183 185 179 199 189 192 209 213 196 195 239 200 133 145 137 126 140 112 113 116 185 176 276 261 263 238 247 237 221 228 229 223
162 166 157 155 169 171 175 185 162 152 156 143 148 184 222 199 190 206 214 219 196 231 269 173 153 140 184 135 149 159 143 106 96 124 245 288 291 251 256 243 240 228 219
158 148 163 166 182 175 174 190 171 172 173 154 165 197 210 194 182 193 204 189 223 219 252 197 139 163 180 127 172 168 162 160 188 155 211 262 250 290 267 254 240 246 246